Year,Month,Day,Hour,Minute,Value (Times are PST for temperature in C)
2018,01,25,00,00,5.40
2018,01,25,00,01,5.40
2018,01,25,00,02,5.40
2018,01,25,00,03,5.40
2018,01,25,00,04,5.30
2018,01,25,00,05,5.30
2018,01,25,00,06,5.30
2018,01,25,00,07,5.30
2018,01,25,00,08,5.30
2018,01,25,00,09,5.20
2018,01,25,00,10,5.20
2018,01,25,00,11,5.20
2018,01,25,00,12,5.20
2018,01,25,00,13,5.10
2018,01,25,00,14,5.10
2018,01,25,00,15,5.00
2018,01,25,00,16,5.00
2018,01,25,00,17,4.90
2018,01,25,00,18,4.90
2018,01,25,00,19,4.90
2018,01,25,00,20,4.80
2018,01,25,00,21,4.80
2018,01,25,00,22,4.70
2018,01,25,00,23,4.70
2018,01,25,00,24,4.70
2018,01,25,00,25,4.60
2018,01,25,00,26,4.50
2018,01,25,00,27,4.50
2018,01,25,00,28,4.40
2018,01,25,00,29,4.40
2018,01,25,00,30,4.40
2018,01,25,00,31,4.30
2018,01,25,00,32,4.30
2018,01,25,00,33,4.30
2018,01,25,00,34,4.20
2018,01,25,00,35,4.20
2018,01,25,00,36,4.20
2018,01,25,00,37,4.10
2018,01,25,00,38,4.10
2018,01,25,00,39,4.00
2018,01,25,00,40,4.00
2018,01,25,00,41,4.00
2018,01,25,00,42,4.00
2018,01,25,00,43,3.90
2018,01,25,00,44,3.90
2018,01,25,00,45,3.90
2018,01,25,00,46,3.90
2018,01,25,00,47,3.90
2018,01,25,00,48,3.90
2018,01,25,00,49,3.80
2018,01,25,00,50,3.80
2018,01,25,00,51,3.80
2018,01,25,00,52,3.80
2018,01,25,00,53,3.70
2018,01,25,00,54,3.70
2018,01,25,00,55,3.60
2018,01,25,00,56,3.60
2018,01,25,00,57,3.60
2018,01,25,00,58,3.60
2018,01,25,00,59,3.50
2018,01,25,01,00,3.50
2018,01,25,01,01,3.60
2018,01,25,01,02,3.60
2018,01,25,01,03,3.60
2018,01,25,01,04,3.60
2018,01,25,01,05,3.60
2018,01,25,01,06,3.60
2018,01,25,01,07,3.60
2018,01,25,01,08,3.50
2018,01,25,01,09,3.50
2018,01,25,01,10,3.50
2018,01,25,01,11,3.50
2018,01,25,01,12,3.40
2018,01,25,01,13,3.40
2018,01,25,01,14,3.40
2018,01,25,01,15,3.40
2018,01,25,01,16,3.40
2018,01,25,01,17,3.40
2018,01,25,01,18,3.40
2018,01,25,01,19,3.40
2018,01,25,01,20,3.40
2018,01,25,01,21,3.40
2018,01,25,01,22,3.40
2018,01,25,01,23,3.40
2018,01,25,01,24,3.40
2018,01,25,01,25,3.40
2018,01,25,01,26,3.40
2018,01,25,01,27,3.40
2018,01,25,01,28,3.40
2018,01,25,01,29,3.40
2018,01,25,01,30,3.40
2018,01,25,01,31,3.40
2018,01,25,01,32,3.40
2018,01,25,01,33,3.40
2018,01,25,01,34,3.40
2018,01,25,01,35,3.40
2018,01,25,01,36,3.40
2018,01,25,01,37,3.40
2018,01,25,01,38,3.40
2018,01,25,01,39,3.40
2018,01,25,01,40,3.40
2018,01,25,01,41,3.40
2018,01,25,01,42,3.40
2018,01,25,01,43,3.40
2018,01,25,01,44,3.40
2018,01,25,01,45,3.40
2018,01,25,01,46,3.40
2018,01,25,01,47,3.40
2018,01,25,01,48,3.40
2018,01,25,01,49,3.40
2018,01,25,01,50,3.40
2018,01,25,01,51,3.40
2018,01,25,01,52,3.40
2018,01,25,01,53,3.40
2018,01,25,01,54,3.40
2018,01,25,01,55,3.40
2018,01,25,01,56,3.40
2018,01,25,01,57,3.40
2018,01,25,01,58,3.40
2018,01,25,01,59,3.50
2018,01,25,02,00,3.50
2018,01,25,02,01,3.50
2018,01,25,02,02,3.60
2018,01,25,02,03,3.60
2018,01,25,02,04,3.70
2018,01,25,02,05,3.70
2018,01,25,02,06,3.80
2018,01,25,02,07,3.90
2018,01,25,02,08,3.90
2018,01,25,02,09,4.00
2018,01,25,02,10,4.10
2018,01,25,02,11,4.10
2018,01,25,02,12,4.20
2018,01,25,02,13,4.20
2018,01,25,02,14,4.20
2018,01,25,02,15,4.30
2018,01,25,02,16,4.30
2018,01,25,02,17,4.30
2018,01,25,02,18,4.30
2018,01,25,02,19,4.40
2018,01,25,02,20,4.40
2018,01,25,02,21,4.40
2018,01,25,02,22,4.50
2018,01,25,02,23,4.50
2018,01,25,02,24,4.60
2018,01,25,02,25,4.60
2018,01,25,02,26,4.60
2018,01,25,02,27,4.60
2018,01,25,02,28,4.60
2018,01,25,02,29,4.60
2018,01,25,02,30,4.60
2018,01,25,02,31,4.70
2018,01,25,02,32,4.70
2018,01,25,02,33,4.70
2018,01,25,02,34,4.70
2018,01,25,02,35,4.70
2018,01,25,02,36,4.70
2018,01,25,02,37,4.80
2018,01,25,02,38,4.80
2018,01,25,02,39,4.80
2018,01,25,02,40,4.80
2018,01,25,02,41,4.80
2018,01,25,02,42,4.80
2018,01,25,02,43,4.80
2018,01,25,02,44,4.80
2018,01,25,02,45,4.80
2018,01,25,02,46,4.80
2018,01,25,02,47,4.80
2018,01,25,02,48,4.80
2018,01,25,02,49,4.80
2018,01,25,02,50,4.80
2018,01,25,02,51,4.80
2018,01,25,02,52,4.80
2018,01,25,02,53,4.70
2018,01,25,02,54,4.70
2018,01,25,02,55,4.70
2018,01,25,02,56,4.70
2018,01,25,02,57,4.80
2018,01,25,02,58,4.80
2018,01,25,02,59,4.80
2018,01,25,03,00,4.80
2018,01,25,03,01,4.80
2018,01,25,03,02,4.80
2018,01,25,03,03,4.80
2018,01,25,03,04,4.80
2018,01,25,03,05,4.80
2018,01,25,03,06,4.80
2018,01,25,03,07,4.80
2018,01,25,03,08,4.70
2018,01,25,03,09,4.70
2018,01,25,03,10,4.60
2018,01,25,03,11,4.60
2018,01,25,03,12,4.50
2018,01,25,03,13,4.40
2018,01,25,03,14,4.40
2018,01,25,03,15,4.30
2018,01,25,03,16,4.30
2018,01,25,03,17,4.30
2018,01,25,03,18,4.30
2018,01,25,03,19,4.30
2018,01,25,03,20,4.30
2018,01,25,03,21,4.30
2018,01,25,03,22,4.20
2018,01,25,03,23,4.20
2018,01,25,03,24,4.20
2018,01,25,03,25,4.20
2018,01,25,03,26,4.20
2018,01,25,03,27,4.10
2018,01,25,03,28,4.10
2018,01,25,03,29,4.10
2018,01,25,03,30,4.00
2018,01,25,03,31,4.00
2018,01,25,03,32,3.90
2018,01,25,03,33,3.90
2018,01,25,03,34,3.90
2018,01,25,03,35,3.90
2018,01,25,03,36,3.90
2018,01,25,03,37,3.90
2018,01,25,03,38,3.90
2018,01,25,03,39,3.90
2018,01,25,03,40,3.90
2018,01,25,03,41,3.90
2018,01,25,03,42,3.90
2018,01,25,03,43,3.90
2018,01,25,03,44,3.90
2018,01,25,03,45,3.90
2018,01,25,03,46,3.90
2018,01,25,03,47,3.90
2018,01,25,03,48,3.90
2018,01,25,03,49,3.90
2018,01,25,03,50,3.90
2018,01,25,03,51,4.00
2018,01,25,03,52,4.00
2018,01,25,03,53,4.10
2018,01,25,03,54,4.20
2018,01,25,03,55,4.20
2018,01,25,03,56,4.30
2018,01,25,03,57,4.30
2018,01,25,03,58,4.40
2018,01,25,03,59,4.40
2018,01,25,04,00,4.50
2018,01,25,04,01,4.50
2018,01,25,04,02,4.50
2018,01,25,04,03,4.50
2018,01,25,04,04,4.40
2018,01,25,04,05,4.30
2018,01,25,04,06,4.20
2018,01,25,04,07,4.10
2018,01,25,04,08,4.00
2018,01,25,04,09,3.90
2018,01,25,04,10,3.80
2018,01,25,04,11,3.80
2018,01,25,04,12,3.80
2018,01,25,04,13,3.80
2018,01,25,04,14,3.80
2018,01,25,04,15,3.70
2018,01,25,04,16,3.70
2018,01,25,04,17,3.60
2018,01,25,04,18,3.50
2018,01,25,04,19,3.50
2018,01,25,04,20,3.40
2018,01,25,04,21,3.40
2018,01,25,04,22,3.40
2018,01,25,04,23,3.30
2018,01,25,04,24,3.30
2018,01,25,04,25,3.30
2018,01,25,04,26,3.30
2018,01,25,04,27,3.30
2018,01,25,04,28,3.20
2018,01,25,04,29,3.20
2018,01,25,04,30,3.20
2018,01,25,04,31,3.20
2018,01,25,04,32,3.20
2018,01,25,04,33,3.20
2018,01,25,04,34,3.10
2018,01,25,04,35,3.10
2018,01,25,04,36,3.10
2018,01,25,04,37,3.10
2018,01,25,04,38,3.10
2018,01,25,04,39,3.10
2018,01,25,04,40,3.10
2018,01,25,04,41,3.10
2018,01,25,04,42,3.10
2018,01,25,04,43,3.10
2018,01,25,04,44,3.10
2018,01,25,04,45,3.20
2018,01,25,04,46,3.20
2018,01,25,04,47,3.30
2018,01,25,04,48,3.40
2018,01,25,04,49,3.50
2018,01,25,04,50,3.60
2018,01,25,04,51,3.70
2018,01,25,04,52,3.80
2018,01,25,04,53,3.80
2018,01,25,04,54,3.80
2018,01,25,04,55,3.90
2018,01,25,04,56,3.90
2018,01,25,04,57,3.90
2018,01,25,04,58,3.90
2018,01,25,04,59,3.80
2018,01,25,05,00,3.80
2018,01,25,05,01,3.70
2018,01,25,05,02,3.70
2018,01,25,05,03,3.60
2018,01,25,05,04,3.60
2018,01,25,05,05,3.60
2018,01,25,05,06,3.60
2018,01,25,05,07,3.60
2018,01,25,05,08,3.60
2018,01,25,05,09,3.60
2018,01,25,05,10,3.60
2018,01,25,05,11,3.60
2018,01,25,05,12,3.60
2018,01,25,05,13,3.60
2018,01,25,05,14,3.60
2018,01,25,10,36,2.90
2018,01,25,10,37,2.90
2018,01,25,10,38,2.90
2018,01,25,10,39,3.00
2018,01,25,10,40,3.00
2018,01,25,10,41,3.00
2018,01,25,10,42,3.00
2018,01,25,10,43,3.00
2018,01,25,10,44,3.10
2018,01,25,10,45,3.10
2018,01,25,10,46,3.10
2018,01,25,10,47,3.10
2018,01,25,10,48,3.20
2018,01,25,10,49,3.20
2018,01,25,10,50,3.20
2018,01,25,10,51,3.20
2018,01,25,10,52,3.20
2018,01,25,10,53,3.20
2018,01,25,10,54,3.20
2018,01,25,10,55,3.20
2018,01,25,10,56,3.20
2018,01,25,10,57,3.20
2018,01,25,10,58,3.30
2018,01,25,10,59,3.30
2018,01,25,11,00,3.30
2018,01,25,11,01,3.30
2018,01,25,11,02,3.30
2018,01,25,11,03,3.30
2018,01,25,11,04,3.30
2018,01,25,11,05,3.30
2018,01,25,11,06,3.30
2018,01,25,11,07,3.30
2018,01,25,11,08,3.40
2018,01,25,11,09,3.40
2018,01,25,11,10,3.40
2018,01,25,11,11,3.40
2018,01,25,11,12,3.40
2018,01,25,11,13,3.40
2018,01,25,11,14,3.40
2018,01,25,11,15,3.30
2018,01,25,11,16,3.30
2018,01,25,11,17,3.30
2018,01,25,11,18,3.30
2018,01,25,11,19,3.30
2018,01,25,11,20,3.30
2018,01,25,11,21,3.30
2018,01,25,11,22,3.30
2018,01,25,11,23,3.30
2018,01,25,11,24,3.30
2018,01,25,11,25,3.30
2018,01,25,11,26,3.30
2018,01,25,11,27,3.30
2018,01,25,11,28,3.20
2018,01,25,11,29,3.20
2018,01,25,11,30,3.20
2018,01,25,11,31,3.20
2018,01,25,11,32,3.20
2018,01,25,11,33,3.20
2018,01,25,11,34,3.20
2018,01,25,11,35,3.20
2018,01,25,11,36,3.30
2018,01,25,11,37,3.30
2018,01,25,11,38,3.30
2018,01,25,11,39,3.30
2018,01,25,11,40,3.30
2018,01,25,11,41,3.30
2018,01,25,11,42,3.30
2018,01,25,11,43,3.30
2018,01,25,11,44,3.30
2018,01,25,11,45,3.30
2018,01,25,11,46,3.30
2018,01,25,11,47,3.30
2018,01,25,11,48,3.30
2018,01,25,11,49,3.30
2018,01,25,11,50,3.30
2018,01,25,11,51,3.30
2018,01,25,11,52,3.30
2018,01,25,11,53,3.30
2018,01,25,11,54,3.30
2018,01,25,11,55,3.30
2018,01,25,11,56,3.30
2018,01,25,11,57,3.30
2018,01,25,11,58,3.30
2018,01,25,11,59,3.30
2018,01,25,12,00,3.30
2018,01,25,12,01,3.30
2018,01,25,12,02,3.30
2018,01,25,12,03,3.30
2018,01,25,12,04,3.30
2018,01,25,12,05,3.30
2018,01,25,12,06,3.30
2018,01,25,12,07,3.30
2018,01,25,12,08,3.30
2018,01,25,12,09,3.30
2018,01,25,12,10,3.30
2018,01,25,12,11,3.40
2018,01,25,12,12,3.40
2018,01,25,12,13,3.40
2018,01,25,12,14,3.50
2018,01,25,12,15,3.50
2018,01,25,12,16,3.60
2018,01,25,12,17,3.60
2018,01,25,12,18,3.70
2018,01,25,12,19,3.70
2018,01,25,12,20,3.80
2018,01,25,12,21,3.80
2018,01,25,12,22,3.90
2018,01,25,12,23,3.90
2018,01,25,12,24,4.00
2018,01,25,12,25,4.10
2018,01,25,12,26,4.10
2018,01,25,12,27,4.20
2018,01,25,12,28,4.20
2018,01,25,12,29,4.20
2018,01,25,12,30,4.20
2018,01,25,12,31,4.30
2018,01,25,12,32,4.30
2018,01,25,12,33,4.30
2018,01,25,12,34,4.30
2018,01,25,12,35,4.30
2018,01,25,12,36,4.40
2018,01,25,12,37,4.40
2018,01,25,12,38,4.40
2018,01,25,12,39,4.40
2018,01,25,12,40,4.40
2018,01,25,12,41,4.40
2018,01,25,12,42,4.50
2018,01,25,12,43,4.50
2018,01,25,12,44,4.60
2018,01,25,12,45,4.60
2018,01,25,12,46,4.60
2018,01,25,12,47,4.60
2018,01,25,12,48,4.70
2018,01,25,12,49,4.70
2018,01,25,12,50,4.70
2018,01,25,12,51,4.70
2018,01,25,12,52,4.70
2018,01,25,12,53,4.70
2018,01,25,12,54,4.70
2018,01,25,12,55,4.80
2018,01,25,12,56,4.80
2018,01,25,12,57,4.80
2018,01,25,12,58,4.80
2018,01,25,12,59,4.80
2018,01,25,13,00,4.80
2018,01,25,13,01,4.80
2018,01,25,13,02,4.70
2018,01,25,13,03,4.70
2018,01,25,13,04,4.70
2018,01,25,13,05,4.70
2018,01,25,13,06,4.70
2018,01,25,13,07,4.80
2018,01,25,13,08,4.80
2018,01,25,13,09,4.70
2018,01,25,13,10,4.70
2018,01,25,13,11,4.70
2018,01,25,13,12,4.70
2018,01,25,13,13,4.70
2018,01,25,13,14,4.70
2018,01,25,13,15,4.70
2018,01,25,13,16,4.70
2018,01,25,13,17,4.70
2018,01,25,13,18,4.70
2018,01,25,13,19,4.70
2018,01,25,13,20,4.70
2018,01,25,13,21,4.80
2018,01,25,13,22,4.80
2018,01,25,13,23,4.80
2018,01,25,13,24,4.80
2018,01,25,13,25,4.80
2018,01,25,13,26,4.80
2018,01,25,13,27,4.80
2018,01,25,13,28,4.80
2018,01,25,13,29,4.80
2018,01,25,13,30,4.80
2018,01,25,13,31,4.80
2018,01,25,13,32,4.80
2018,01,25,13,33,4.80
2018,01,25,13,34,4.80
2018,01,25,13,35,4.80
2018,01,25,13,36,4.80
2018,01,25,13,37,4.80
2018,01,25,13,38,4.90
2018,01,25,13,39,4.90
2018,01,25,13,40,4.90
2018,01,25,13,41,5.00
2018,01,25,13,42,5.00
2018,01,25,13,43,5.00
2018,01,25,13,44,5.00
2018,01,25,13,45,4.90
2018,01,25,13,46,4.90
2018,01,25,13,47,4.80
2018,01,25,13,48,4.80
2018,01,25,13,49,4.80
2018,01,25,13,50,4.80
2018,01,25,13,51,4.80
2018,01,25,13,52,4.70
2018,01,25,13,53,4.70
2018,01,25,13,54,4.70
2018,01,25,13,55,4.70
2018,01,25,13,56,4.70
2018,01,25,13,57,4.70
2018,01,25,13,58,4.70
2018,01,25,13,59,4.60
2018,01,25,14,00,4.60
2018,01,25,14,01,4.70
2018,01,25,14,02,4.70
2018,01,25,14,03,4.60
2018,01,25,14,04,4.60
2018,01,25,14,05,4.60
2018,01,25,14,06,4.50
2018,01,25,14,07,4.50
2018,01,25,14,08,4.50
2018,01,25,14,09,4.50
2018,01,25,14,10,4.50
2018,01,25,14,11,4.40
2018,01,25,14,12,4.40
2018,01,25,14,13,4.40
2018,01,25,14,14,4.40
2018,01,25,14,15,4.40
2018,01,25,14,16,4.40
2018,01,25,14,17,4.40
2018,01,25,14,18,4.30
2018,01,25,14,19,4.30
2018,01,25,14,20,4.30
2018,01,25,14,21,4.30
2018,01,25,14,22,4.20
2018,01,25,14,23,4.20
2018,01,25,14,24,4.20
2018,01,25,14,25,4.20
2018,01,25,14,26,4.20
2018,01,25,14,27,4.20
2018,01,25,14,28,4.20
2018,01,25,14,29,4.20
2018,01,25,14,30,4.20
2018,01,25,14,31,4.20
2018,01,25,14,32,4.10
2018,01,25,14,33,4.10
2018,01,25,14,34,4.10
2018,01,25,14,35,4.10
2018,01,25,14,36,4.10
2018,01,25,14,37,4.00
2018,01,25,14,38,4.00
2018,01,25,14,39,4.00
2018,01,25,14,40,3.90
2018,01,25,14,41,3.90
2018,01,25,14,42,3.90
2018,01,25,14,43,3.90
2018,01,25,14,44,3.90
2018,01,25,14,45,3.90
2018,01,25,14,46,3.90
2018,01,25,14,47,3.90
2018,01,25,14,48,3.90
2018,01,25,14,49,3.90
2018,01,25,14,50,3.90
2018,01,25,14,51,3.90
2018,01,25,14,52,3.90
2018,01,25,14,53,3.90
2018,01,25,14,54,3.90
2018,01,25,14,55,4.00
2018,01,25,14,56,4.00
2018,01,25,14,57,4.00
2018,01,25,14,58,4.00
2018,01,25,14,59,4.00
2018,01,25,15,00,4.00
2018,01,25,15,01,4.00
2018,01,25,15,02,4.10
2018,01,25,15,03,4.10
2018,01,25,15,04,4.10
2018,01,25,15,05,4.10
2018,01,25,15,06,4.10
2018,01,25,15,07,4.10
2018,01,25,15,08,4.20
2018,01,25,15,09,4.20
2018,01,25,15,10,4.20
2018,01,25,15,11,4.20
2018,01,25,15,12,4.20
2018,01,25,15,13,4.20
2018,01,25,15,14,4.20
2018,01,25,15,15,4.30
2018,01,25,15,16,4.30
2018,01,25,15,17,4.30
2018,01,25,15,18,4.30
2018,01,25,15,19,4.30
2018,01,25,15,20,4.40
2018,01,25,15,21,4.40
2018,01,25,15,22,4.40
2018,01,25,15,23,4.40
2018,01,25,15,24,4.40
2018,01,25,15,25,4.40
2018,01,25,15,26,4.40
2018,01,25,15,27,4.50
2018,01,25,15,28,4.50
2018,01,25,15,29,4.50
2018,01,25,15,30,4.50
2018,01,25,15,31,4.60
2018,01,25,15,32,4.60
2018,01,25,15,33,4.60
2018,01,25,15,34,4.70
2018,01,25,15,35,4.70
2018,01,25,15,36,4.70
2018,01,25,15,37,4.80
2018,01,25,15,38,4.80
2018,01,25,15,39,4.80
2018,01,25,15,40,4.80
2018,01,25,15,41,4.80
2018,01,25,15,42,4.80
2018,01,25,15,43,4.80
2018,01,25,15,44,4.80
2018,01,25,15,45,4.80
2018,01,25,15,46,4.90
2018,01,25,15,47,4.90
2018,01,25,15,48,4.90
2018,01,25,15,49,4.90
2018,01,25,15,50,4.90
2018,01,25,15,51,4.90
2018,01,25,15,52,5.00
2018,01,25,15,53,5.00
2018,01,25,15,54,5.00
2018,01,25,15,55,5.00
2018,01,25,15,56,5.00
2018,01,25,15,57,5.00
2018,01,25,15,58,5.00
2018,01,25,15,59,5.00
2018,01,25,16,00,4.90
2018,01,25,16,01,4.90
2018,01,25,16,02,4.90
2018,01,25,16,03,4.90
2018,01,25,16,04,4.80
2018,01,25,16,05,4.80
2018,01,25,16,06,4.80
2018,01,25,16,07,4.80
2018,01,25,16,08,4.80
2018,01,25,16,09,4.70
2018,01,25,16,10,4.70
2018,01,25,16,11,4.70
2018,01,25,16,12,4.70
2018,01,25,16,13,4.60
2018,01,25,16,14,4.60
2018,01,25,16,15,4.60
2018,01,25,16,16,4.50
2018,01,25,16,17,4.50
2018,01,25,16,18,4.50
2018,01,25,16,19,4.50
2018,01,25,16,20,4.50
2018,01,25,16,21,4.50
2018,01,25,16,22,4.40
2018,01,25,16,23,4.40
2018,01,25,16,24,4.40
2018,01,25,16,25,4.50
2018,01,25,16,26,4.50
2018,01,25,16,27,4.50
2018,01,25,16,28,4.60
2018,01,25,16,29,4.60
2018,01,25,16,30,4.50
2018,01,25,16,31,4.50
2018,01,25,16,32,4.50
2018,01,25,16,33,4.50
2018,01,25,16,34,4.40
2018,01,25,16,35,4.40
2018,01,25,16,36,4.40
2018,01,25,16,37,4.40
2018,01,25,16,38,4.40
2018,01,25,16,39,4.40
2018,01,25,16,40,4.40
2018,01,25,16,41,4.40
2018,01,25,16,42,4.40
2018,01,25,16,43,4.40
2018,01,25,16,44,4.40
2018,01,25,16,45,4.40
2018,01,25,16,46,4.40
2018,01,25,16,47,4.40
2018,01,25,16,48,4.40
2018,01,25,16,49,4.40
2018,01,25,16,50,4.40
2018,01,25,16,51,4.40
2018,01,25,16,52,4.40
2018,01,25,16,53,4.40
2018,01,25,16,54,4.40
2018,01,25,16,55,4.40
2018,01,25,16,56,4.50
2018,01,25,16,57,4.40
2018,01,25,16,58,4.40
2018,01,25,16,59,4.40
2018,01,25,17,00,4.40
2018,01,25,17,01,4.50
2018,01,25,17,02,4.50
2018,01,25,17,03,4.40
2018,01,25,17,04,4.40
2018,01,25,17,05,4.40
2018,01,25,17,06,4.40
2018,01,25,17,07,4.40
2018,01,25,17,08,4.40
2018,01,25,17,09,4.40
2018,01,25,17,10,4.40
2018,01,25,17,11,4.40
2018,01,25,17,12,4.40
2018,01,25,17,13,4.40
2018,01,25,17,14,4.40
2018,01,25,17,15,4.40
2018,01,25,17,16,4.40
2018,01,25,17,17,4.40
2018,01,25,17,18,4.40
2018,01,25,17,19,4.40
2018,01,25,17,20,4.40
2018,01,25,17,21,4.40
2018,01,25,17,22,4.40
2018,01,25,17,23,4.40
2018,01,25,17,24,4.40
2018,01,25,17,25,4.40
2018,01,25,17,26,4.40
2018,01,25,17,27,4.40
2018,01,25,17,28,4.40
2018,01,25,17,29,4.40
2018,01,25,17,30,4.40
2018,01,25,17,31,4.40
2018,01,25,17,32,4.40
2018,01,25,17,33,4.40
2018,01,25,17,34,4.40
2018,01,25,17,35,4.40
2018,01,25,17,36,4.40
2018,01,25,17,37,4.40
2018,01,25,17,38,4.40
2018,01,25,17,39,4.40
2018,01,25,17,40,4.40
2018,01,25,17,41,4.40
2018,01,25,17,42,4.50
2018,01,25,17,43,4.40
2018,01,25,17,44,4.50
2018,01,25,17,45,4.50
2018,01,25,17,46,4.40
2018,01,25,17,47,4.40
2018,01,25,17,48,4.40
2018,01,25,17,49,4.50
2018,01,25,17,50,4.50
2018,01,25,17,51,4.50
2018,01,25,17,52,4.50
2018,01,25,17,53,4.50
2018,01,25,17,54,4.50
2018,01,25,17,55,4.50
2018,01,25,17,56,4.50
2018,01,25,17,57,4.50
2018,01,25,17,58,4.50
2018,01,25,17,59,4.50
2018,01,25,18,00,4.50
2018,01,25,18,01,4.50
2018,01,25,18,02,4.50
2018,01,25,18,03,4.50
2018,01,25,18,04,4.50
2018,01,25,18,05,4.40
2018,01,25,18,06,4.40
2018,01,25,18,07,4.40
2018,01,25,18,08,4.40
2018,01,25,18,09,4.40
2018,01,25,18,10,4.40
2018,01,25,18,11,4.40
2018,01,25,18,12,4.40
2018,01,25,18,13,4.40
2018,01,25,18,14,4.40
2018,01,25,18,15,4.40
2018,01,25,18,16,4.40
2018,01,25,18,17,4.40
2018,01,25,18,18,4.30
2018,01,25,18,19,4.30
2018,01,25,18,20,4.30
2018,01,25,18,21,4.30
2018,01,25,18,22,4.30
2018,01,25,18,23,4.30
2018,01,25,18,24,4.40
2018,01,25,18,25,4.40
2018,01,25,18,26,4.40
2018,01,25,18,27,4.40
2018,01,25,18,28,4.40
2018,01,25,18,29,4.40
2018,01,25,18,30,4.40
2018,01,25,18,31,4.40
2018,01,25,18,32,4.40
2018,01,25,18,33,4.40
2018,01,25,18,34,4.40
2018,01,25,18,35,4.40
2018,01,25,18,36,4.40
2018,01,25,18,37,4.40
2018,01,25,18,38,4.40
2018,01,25,18,39,4.40
2018,01,25,18,40,4.40
2018,01,25,18,41,4.40
2018,01,25,18,42,4.40
2018,01,25,18,43,4.40
2018,01,25,18,44,4.50
2018,01,25,18,45,4.50
2018,01,25,18,46,4.50
2018,01,25,18,47,4.60
2018,01,25,18,48,4.60
2018,01,25,18,49,4.70
2018,01,25,18,50,4.70
2018,01,25,18,51,4.70
2018,01,25,18,52,4.70
2018,01,25,18,53,4.70
2018,01,25,18,54,4.70
2018,01,25,18,55,4.80
2018,01,25,18,56,4.80
2018,01,25,18,57,4.80
2018,01,25,18,58,4.80
2018,01,25,18,59,4.80
2018,01,25,19,00,4.80
2018,01,25,19,01,4.80
2018,01,25,19,02,4.80
2018,01,25,19,03,4.80
2018,01,25,19,04,4.80
2018,01,25,19,05,4.70
2018,01,25,19,06,4.70
2018,01,25,19,07,4.70
2018,01,25,19,08,4.70
2018,01,25,19,09,4.70
2018,01,25,19,10,4.70
2018,01,25,19,11,4.70
2018,01,25,19,12,4.70
2018,01,25,19,13,4.70
2018,01,25,19,14,4.70
2018,01,25,19,15,4.70
2018,01,25,19,16,4.70
2018,01,25,19,17,4.70
2018,01,25,19,18,4.70
2018,01,25,19,19,4.80
2018,01,25,19,20,4.80
2018,01,25,19,21,4.80
2018,01,25,19,22,4.80
2018,01,25,19,23,4.80
2018,01,25,19,24,4.80
2018,01,25,19,25,4.80
2018,01,25,19,26,4.80
2018,01,25,19,27,4.80
2018,01,25,19,28,4.80
2018,01,25,19,29,4.80
2018,01,25,19,30,4.80
2018,01,25,19,31,4.80
2018,01,25,19,32,4.80
2018,01,25,19,33,4.80
2018,01,25,19,34,4.80
2018,01,25,19,35,4.90
2018,01,25,19,36,4.90
2018,01,25,19,37,4.90
2018,01,25,19,38,5.00
2018,01,25,19,39,5.00
2018,01,25,19,40,5.00
2018,01,25,19,41,5.00
2018,01,25,19,42,5.00
2018,01,25,19,43,5.00
2018,01,25,19,44,5.00
2018,01,25,19,45,5.00
2018,01,25,19,46,5.00
2018,01,25,19,47,5.10
2018,01,25,19,48,5.10
2018,01,25,19,49,5.10
2018,01,25,19,50,5.10
2018,01,25,19,51,5.10
2018,01,25,19,52,5.10
2018,01,25,19,53,5.10
2018,01,25,19,54,5.10
2018,01,25,19,55,5.10
2018,01,25,19,56,5.10
2018,01,25,19,57,5.20
2018,01,25,19,58,5.20
2018,01,25,19,59,5.20
2018,01,25,20,00,5.10
2018,01,25,20,01,5.10
2018,01,25,20,02,5.10
2018,01,25,20,03,5.10
2018,01,25,20,04,5.10
2018,01,25,20,05,5.10
2018,01,25,20,06,5.10
2018,01,25,20,07,5.10
2018,01,25,20,08,5.10
2018,01,25,20,09,5.00
2018,01,25,20,10,5.00
2018,01,25,20,11,5.00
2018,01,25,20,12,5.00
2018,01,25,20,13,5.00
2018,01,25,20,14,5.00
2018,01,25,20,15,4.90
2018,01,25,20,16,4.90
2018,01,25,20,17,4.90
2018,01,25,20,18,4.90
2018,01,25,20,19,4.90
2018,01,25,20,20,4.90
2018,01,25,20,21,4.90
2018,01,25,20,22,4.80
2018,01,25,20,23,4.80
2018,01,25,20,24,4.80
2018,01,25,20,25,4.80
2018,01,25,20,26,4.80
2018,01,25,20,27,4.80
2018,01,25,20,28,4.80
2018,01,25,20,29,4.80
2018,01,25,20,30,4.70
2018,01,25,20,31,4.70
2018,01,25,20,32,4.70
2018,01,25,20,33,4.70
2018,01,25,20,34,4.70
2018,01,25,20,35,4.70
2018,01,25,20,36,4.70
2018,01,25,20,37,4.70
2018,01,25,20,38,4.70
2018,01,25,20,39,4.70
2018,01,25,20,40,4.70
2018,01,25,20,41,4.70
2018,01,25,20,42,4.70
2018,01,25,20,43,4.70
2018,01,25,20,44,4.70
2018,01,25,20,45,4.60
2018,01,25,20,46,4.60
2018,01,25,20,47,4.60
2018,01,25,20,48,4.60
2018,01,25,20,49,4.60
2018,01,25,20,50,4.50
2018,01,25,20,51,4.50
2018,01,25,20,52,4.50
2018,01,25,20,53,4.50
2018,01,25,20,54,4.40
2018,01,25,20,55,4.40
2018,01,25,20,56,4.40
2018,01,25,20,57,4.40
2018,01,25,20,58,4.40
2018,01,25,20,59,4.40
2018,01,25,21,00,4.40
2018,01,25,21,01,4.30
2018,01,25,21,02,4.30
2018,01,25,21,03,4.30
2018,01,25,21,04,4.30
2018,01,25,21,05,4.30
2018,01,25,21,06,4.30
2018,01,25,21,07,4.30
2018,01,25,21,08,4.30
2018,01,25,21,09,4.30
2018,01,25,21,10,4.30
2018,01,25,21,11,4.30
2018,01,25,21,12,4.20
2018,01,25,21,13,4.20
2018,01,25,21,14,4.20
2018,01,25,21,15,4.20
2018,01,25,21,16,4.20
2018,01,25,21,17,4.20
2018,01,25,21,18,4.20
2018,01,25,21,19,4.20
2018,01,25,21,20,4.20
2018,01,25,21,21,4.20
2018,01,25,21,22,4.20
2018,01,25,21,23,4.20
2018,01,25,21,24,4.10
2018,01,25,21,25,4.10
2018,01,25,21,26,4.10
2018,01,25,21,27,4.10
2018,01,25,21,28,4.10
2018,01,25,21,29,4.10
2018,01,25,21,30,4.10
2018,01,25,21,31,4.00
2018,01,25,21,32,3.90
2018,01,25,21,33,3.70
2018,01,25,21,34,3.50
2018,01,25,21,35,3.30
2018,01,25,21,36,3.20
2018,01,25,21,37,3.10
2018,01,25,21,38,3.00
2018,01,25,21,39,2.90
2018,01,25,21,40,2.90
2018,01,25,21,41,2.90
2018,01,25,21,42,2.90
2018,01,25,21,43,2.90
2018,01,25,21,44,2.90
2018,01,25,21,45,2.90
2018,01,25,21,46,2.90
2018,01,25,21,47,2.90
2018,01,25,21,48,2.90
2018,01,25,21,49,2.90
2018,01,25,21,50,3.00
2018,01,25,21,51,3.00
2018,01,25,21,52,3.10
2018,01,25,21,53,3.10
2018,01,25,21,54,3.10
2018,01,25,21,55,3.10
2018,01,25,21,56,3.10
2018,01,25,21,57,3.10
2018,01,25,21,58,3.10
2018,01,25,21,59,3.20
2018,01,25,22,00,3.20
2018,01,25,22,01,3.20
2018,01,25,22,02,3.10
2018,01,25,22,03,3.10
2018,01,25,22,04,3.10
2018,01,25,22,05,3.20
2018,01,25,22,06,3.20
2018,01,25,22,07,3.20
2018,01,25,22,08,3.20
2018,01,25,22,09,3.20
2018,01,25,22,10,3.20
2018,01,25,22,11,3.20
2018,01,25,22,12,3.20
2018,01,25,22,13,3.20
2018,01,25,22,14,3.20
2018,01,25,22,15,3.20
2018,01,25,22,16,3.20
2018,01,25,22,17,3.20
2018,01,25,22,18,3.20
2018,01,25,22,19,3.20
2018,01,25,22,20,3.20
2018,01,25,22,21,3.20
2018,01,25,22,22,3.20
2018,01,25,22,23,3.20
2018,01,25,22,24,3.20
2018,01,25,22,25,3.10
2018,01,25,22,26,3.10
2018,01,25,22,27,3.10
2018,01,25,22,28,3.10
2018,01,25,22,29,3.10
2018,01,25,22,30,3.00
2018,01,25,22,31,3.00
2018,01,25,22,32,3.00
2018,01,25,22,33,3.00
2018,01,25,22,34,2.90
2018,01,25,22,35,2.90
2018,01,25,22,36,2.90
2018,01,25,22,37,2.90
2018,01,25,22,38,2.90
2018,01,25,22,39,2.90
2018,01,25,22,40,2.90
2018,01,25,22,41,2.90
2018,01,25,22,42,2.90
2018,01,25,22,43,2.90
2018,01,25,22,44,2.90
2018,01,25,22,45,2.90
2018,01,25,22,46,2.80
2018,01,25,22,47,2.80
2018,01,25,22,48,2.80
2018,01,25,22,49,2.80
2018,01,25,22,50,2.80
2018,01,25,22,51,2.80
2018,01,25,22,52,2.80
2018,01,25,22,53,2.80
2018,01,25,22,54,2.80
2018,01,25,22,55,2.80
2018,01,25,22,56,2.80
2018,01,25,22,57,2.80
2018,01,25,22,58,2.80
2018,01,25,22,59,2.80
2018,01,25,23,00,2.80
2018,01,25,23,01,2.80
2018,01,25,23,02,2.80
2018,01,25,23,03,2.80
2018,01,25,23,04,2.80
2018,01,25,23,05,2.80
2018,01,25,23,06,2.80
2018,01,25,23,07,2.80
2018,01,25,23,08,2.80
2018,01,25,23,09,2.80
2018,01,25,23,10,2.80
2018,01,25,23,11,2.80
2018,01,25,23,12,2.80
2018,01,25,23,13,2.80
2018,01,25,23,14,2.80
2018,01,25,23,15,2.80
2018,01,25,23,16,2.80
2018,01,25,23,17,2.80
2018,01,25,23,18,2.80
2018,01,25,23,19,2.80
2018,01,25,23,20,2.80
2018,01,25,23,21,2.80
2018,01,25,23,22,2.80
2018,01,25,23,23,2.80
2018,01,25,23,24,2.80
2018,01,25,23,25,2.80
2018,01,25,23,26,2.80
2018,01,25,23,27,2.80